Weather observations for the past three days for
Caldwell - Caldwell Industrial Airport
Imperial (Metric)
Date Time (mdt) Wind (mph) Vis. (mi.) Weather Sky Cond. Temperature (ºF) Relative Humidity Wind Chill (°F) Heat Index (°F) Pressure Precipitation (in)
Air Dwpt 6 hour altimeter (in) sea level (mb) 1 hr 3 hr 6 hr
Max. Min.
05 13:56 NW 3 10.00 Fair CLR 73.9 39 28% 29.83 1008.5
05 12:56 S 8 10.00 Fair CLR 72 37.9 29% 29.84 1008.8
05 11:56 Vrbl 5 10.00 Fair CLR 70 37 70 51.1 30% 29.85 1009.3
05 10:56 S 12 10.00 Fair CLR 69.1 37.9 32% 29.84 1008.9
05 09:56 S 14 10.00 Fair CLR 68 39 35% 29.83 1008.5
05 08:56 S 10 10.00 Fair CLR 63 45 52% 29.83 1008.4
05 07:56 E 3 10.00 Fair CLR 54 46 75% 29.8 1007.8
05 06:56 W 5 10.00 Fair CLR 54 41 62% 29.77 1006.6
05 05:56 SW 5 10.00 Fair CLR 55.9 41 66.9 55.9 57% 29.74 1005.5
05 04:56 W 8 10.00 Fair CLR 57.9 39.9 51% 29.72 1004.7
05 03:56 W 12 10.00 Fair CLR 57.9 39.9 51% 29.7 1004.1
05 02:56 W 9 10.00 Fair CLR 57.9 39 50% 29.7 1003.9
05 01:56 W 12 10.00 Fair CLR 60.1 39 46% 29.69 1003.7
05 00:56 NW 13 10.00 Fair CLR 64.9 37 36% 29.68 1003.2
04 23:56 NW 9 G 16 10.00 Fair CLR 66.9 39 82 66 36% 29.67 1002.9
04 22:56 NW 7 10.00 Fair CLR 66.9 41 39% 29.66 1002.8
04 21:56 W 12 10.00 Fair CLR 70 41 35% 29.65 1002.4
04 20:56 W 8 10.00 Fair CLR 72 41 33% 29.63 1001.7
04 19:56 NW 8 10.00 Fair CLR 77 39 26% 77 29.62 1001.5
04 18:56 NW 7 10.00 Fair CLR 80.1 37.9 22% 79 29.63 1002.0
04 17:56 NW 9 10.00 Fair CLR 82 37 82 73 20% 80 29.65 1002.3
04 16:56 W 16 G 21 9.00 Fair CLR 82 33.1 17% 80 29.66 1002.7
04 15:56 W 12 G 16 10.00 Fair CLR 81 35.1 19% 79 29.69 1003.6
04 14:56 Vrbl 7 10.00 Fair CLR 80.1 41 25% 79 29.71 1004.5
04 13:56 NW 7 10.00 Fair CLR 78.1 42.1 28% 78 29.73 1005.3
04 12:56 W 10 G 17 10.00 Fair CLR 75 39 27% 77 29.76 1006.1
04 11:56 NW 6 G 22 10.00 Fair CLR 73 39.9 73 51.1 30% 29.77 1006.6
04 10:56 W 9 10.00 Fair CLR 70 41 35% 29.79 1007.1
04 09:56 W 8 10.00 Fair CLR 66 44.1 45% 29.79 1007.2
04 08:56 W 8 8.00 Fair CLR 61 42.1 50% 29.79 1007.3
04 07:56 W 9 10.00 Fair CLR 55.9 41 57% 29.78 1007.1
04 06:56 W 10 10.00 Fair CLR 51.1 41 69% 29.77 1006.7
04 05:56 W 8 10.00 Fair CLR 52 39.9 61 51.1 64% 29.77 1006.4
04 04:56 W 9 10.00 Fair CLR 53.1 41 64% 29.77 1006.3
04 03:56 SW 5 10.00 Fair CLR 54 41 62% 29.77 1006.3
04 02:56 W 12 10.00 Fair CLR 54 41 62% 29.76 1006.2
04 01:56 W 12 10.00 Fair CLR 55.9 41 57% 29.77 1006.6
04 00:56 W 7 10.00 Fair CLR 57.9 42.1 56% 29.76 1006.4
03 23:56 W 5 10.00 Fair CLR 60.1 42.1 82 59 52% 29.76 1006.5
03 22:56 W 9 10.00 Fair CLR 63 42.1 47% 29.76 1006.4
03 21:56 W 8 10.00 Fair CLR 69.1 39.9 35% 29.75 1006.0
03 20:56 W 6 10.00 Fair CLR 72 37.9 29% 29.74 1005.7
03 19:56 W 10 10.00 Fair CLR 78.1 36 22% 78 29.74 1005.8
03 18:56 NW 8 10.00 Fair CLR 81 37 21% 79 29.76 1006.6
03 17:56 NW 6 10.00 Fair CLR 82 37 82 69.1 20% 80 29.77 1006.8
03 16:56 NW 5 G 20 10.00 Fair CLR 82 37.9 21% 80 29.8 1007.7
03 15:56 NW 10 10.00 Fair CLR 81 36 20% 79 29.83 1008.6
03 14:56 NW 6 9.00 Fair CLR 79 42.1 27% 78 29.85 1009.5
03 13:56 W 9 10.00 Fair CLR 75.9 44.1 32% 77 29.88 1010.5
03 12:56 NW 3 10.00 Fair CLR 73 43 34% 29.91 1011.7
03 11:56 W 5 10.00 Fair CLR 70 42.1 70 44.1 37% 29.94 1012.4
03 10:56 Calm 10.00 Fair CLR 66 39.9 39% 29.95 1013.0
03 09:56 NE 3 10.00 Fair CLR 61 43 52% 29.96 1013.4
03 08:56 Calm 10.00 Fair CLR 55.9 41 57% 29.97 1013.6
03 07:56 Calm 10.00 Fair CLR 48.9 43 80% 29.96 1013.7
03 06:56 Calm 10.00 Fair CLR 45 39.9 83% 29.95 1013.3
03 05:56 Calm 10.00 Fair CLR 48 39 62.1 46.9 71% 29.95 1012.9
03 04:56 W 6 10.00 Fair CLR 46.9 39.9 77% 45 29.94 1012.8
03 03:56 W 5 10.00 Fair CLR 51.1 39.9 66% 29.94 1012.7
03 02:56 Calm 10.00 Fair CLR 52 39.9 64% 29.94 1012.4
03 01:56 W 7 10.00 Fair CLR 55 39.9 57% 29.94 1012.4
03 00:56 SW 3 10.00 Fair CLR 55.9 41 57% 29.94 1012.6
02 23:56 W 3 10.00 Fair CLR 62.1 39.9 80.1 60.1 44% 29.93 1012.3
02 22:56 Calm 10.00 Fair CLR 63 41 45% 29.92 1012.0
02 21:56 W 5 10.00 Fair CLR 66.9 39.9 37% 29.91 1011.5
02 18:56 N 8 10.00 Fair CLR 75 39 27% 77 29.9 1011.5
02 16:56 NE 3 10.00 Fair CLR 79 33.1 19% 78 29.91 1011.7
02 15:56 N 5 10.00 Fair CLR 78.1 39 25% 78 29.93 1012.5
02 14:56 N 6 10.00 Fair CLR 79 39.9 25% 78 29.96 1013.4
Date Time (mdt) Wind (mph) Vis. (mi.) Weather Sky Cond. Air Dwpt Max. Min. Relative Humidity Wind Chill (°F) Heat Index (°F) altimeter (in) sea level (mb) 1 hr 3 hr 6 hr
6 hour
Temperature (ºF) Pressure Precipitation (in)